W5ZYX Weather Reports


Display with metric or nautical units.
time (UTC)temp
F
wind
direction
speed
MPH
gust
MPH
rain 1hr
in
rain 24hr
in
rain mn
in
humidity
%
barometer
mb
20260905034611 79 0 0.0 0.0 0.00 0.03 0.03 86 1014.3
20260905034036 79 0 0.0 0.0 0.00 0.03 0.03 86 1014.2
20260905033536 79 0 0.0 0.0 0.00 0.03 0.03 86 1014.2
20260905033119 79 0 0.0 0.0 0.00 0.03 0.03 86 1014.2
20260905032535 80 0 0.0 0.0 0.00 0.03 0.03 86 1014.2
20260905032036 80 0 0.0 0.0 0.00 0.03 0.03 85 1014.3
20260905031602 80 0 0.0 0.0 0.00 0.03 0.03 84 1014.3
20260905031037 80 0 0.0 0.0 0.00 0.03 0.03 85 1014.3
20260905030537 80 0 0.0 0.0 0.00 0.03 0.03 85 1014.3
20260905030101 80 0 0.0 0.0 0.00 0.03 0.03 84 1014.2
20260905025535 81 0 0.0 0.0 0.00 0.03 0.03 84 1014.1
20260905025036 81 0 0.0 0.0 0.00 0.03 0.03 84 1014.1
20260905024604 81 0 0.0 0.0 0.00 0.03 0.03 84 1014.0
20260905024039 81 0 0.0 0.0 0.00 0.03 0.03 84 1014.0
20260905023536 81 0 0.0 0.0 0.00 0.03 0.03 84 1014.1
20260905023126 82 0 0.0 0.0 0.00 0.03 0.03 83 1014.1
20260905022535 82 0 0.0 0.0 0.00 0.03 0.03 82 1014.1
20260905022037 82 0 0.0 0.0 0.00 0.03 0.03 81 1014.1
20260905021600 82 0 0.0 0.0 0.00 0.03 0.03 81 1014.0
20260905021036 83 0 0.0 0.0 0.00 0.03 0.03 81 1014.0
20260905020536 83 0 0.0 0.0 0.00 0.03 0.03 81 1013.9
20260905020058 83 0 0.0 0.0 0.00 0.03 0.03 80 1013.7
20260905015536 84 0 0.0 0.0 0.00 0.03 0.03 80 1013.7
20260905015036 84 0 0.0 0.0 0.00 0.03 0.03 79 1013.6
20260905014559 84 0 0.0 0.0 0.00 0.03 0.03 77 1013.5
20260905014038 84 0 0.0 0.0 0.00 0.03 0.03 77 1013.4
20260905013536 84 0 0.0 0.0 0.00 0.03 0.03 77 1013.4
20260905013101 85 0 0.0 0.0 0.00 0.03 0.03 77 1013.4
20260905012537 85 0 0.0 2.0 0.00 0.03 0.03 76 1013.3
20260905012037 85 0 0.0 2.0 0.00 0.03 0.03 76 1013.3
20260905011603 85 153 0.0 2.0 0.00 0.03 0.03 76 1013.2
20260905011036 85 0 0.0 5.0 0.00 0.03 0.03 75 1013.1
20260905010536 86 153 0.0 5.0 0.00 0.03 0.03 75 1013.0
20260905010109 86 153 0.0 2.0 0.00 0.03 0.03 74 1013.1
20260905005536 87 0 0.0 1.0 0.00 0.03 0.03 74 1013.0
20260905005036 87 0 0.0 1.0 0.00 0.03 0.03 73 1012.9
20260905004623 88 0 0.0 1.0 0.00 0.03 0.03 73 1012.8
20260905004037 88 0 0.0 1.0 0.00 0.03 0.03 71 1012.8
20260905003536 88 0 0.0 5.0 0.00 0.03 0.03 70 1012.8
20260905003056 89 0 0.0 5.0 0.00 0.03 0.03 70 1012.8
20260905002535 89 153 0.0 5.0 0.00 0.03 0.03 69 1012.8
20260905002036 89 153 1.0 5.0 0.00 0.03 0.03 69 1012.7
20260905001604 89 160 2.0 5.0 0.00 0.03 0.03 68 1012.8
20260905001035 89 167 2.0 5.0 0.00 0.03 0.03 69 1012.8
20260905000537 89 140 0.0 7.0 0.00 0.03 0.03 70 1012.8
20260905000130 89 188 2.0 8.0 0.00 0.03 0.03 69 1012.8
20260904235537 89 155 4.0 8.0 0.00 0.03 0.03 69 1012.8
20260904235036 90 151 3.0 8.0 0.00 0.03 0.03 68 1012.8
20260904234602 90 182 3.0 7.0 0.00 0.03 0.03 69 1012.8
20260904234038 90 156 1.0 7.0 0.00 0.03 0.03 70 1012.9
20260904233536 90 170 3.0 8.0 0.00 0.03 0.03 69 1012.9
20260904233103 89 165 3.0 8.0 0.00 0.03 0.03 69 1012.9
20260904232536 89 153 4.0 10.0 0.00 0.03 0.03 69 1012.9
20260904232038 89 117 5.0 10.0 0.00 0.03 0.03 69 1012.9
20260904231603 90 139 4.0 8.0 0.00 0.03 0.03 69 1012.9
20260904231037 90 178 2.0 7.0 0.00 0.03 0.03 70 1012.8
20260904230539 89 161 2.0 9.0 0.00 0.03 0.03 70 1012.7
20260904230114 89 178 2.0 9.0 0.00 0.03 0.03 71 1012.7
20260904225537 88 170 2.0 8.0 0.00 0.03 0.03 73 1012.8
20260904225036 88 188 2.0 9.0 0.00 0.03 0.03 73 1012.7
20260904224600 88 174 2.0 9.0 0.00 0.03 0.03 72 1012.8
20260904224038 89 159 2.0 7.0 0.00 0.03 0.03 72 1012.8
20260904223536 89 167 2.0 7.0 0.00 0.03 0.03 71 1012.8
20260904223058 89 132 3.0 7.0 0.00 0.03 0.03 70 1012.8
20260904222538 89 0 3.0 7.0 0.00 0.03 0.03 69 1012.8
20260904222038 90 154 4.0 8.0 0.00 0.03 0.03 68 1012.8
20260904221603 91 167 3.0 8.0 0.00 0.03 0.03 66 1012.8
20260904221037 92 165 3.0 7.0 0.00 0.03 0.03 65 1012.8
20260904220537 92 140 3.0 7.0 0.00 0.03 0.03 63 1012.8
20260904220105 92 103 4.0 7.0 0.00 0.03 0.03 62 1012.8
20260904215536 92 134 2.0 7.0 0.00 0.03 0.03 63 1012.8
20260904215037 92 153 2.0 7.0 0.00 0.03 0.03 63 1012.9
20260904214600 92 101 2.0 7.0 0.00 0.03 0.03 63 1012.8
20260904214036 92 153 2.0 6.0 0.00 0.03 0.03 64 1013.0
20260904213536 91 269 2.0 5.0 0.00 0.03 0.03 65 1013.0
20260904213056 91 0 2.0 4.0 0.00 0.03 0.03 65 1012.9
20260904212540 91 194 2.0 4.0 0.00 0.03 0.03 66 1013.1
20260904212038 90 145 1.0 6.0 0.00 0.03 0.03 68 1013.2
20260904211601 89 140 2.0 6.0 0.00 0.03 0.03 68 1013.3
20260904211036 89 123 1.0 5.0 0.00 0.03 0.03 68 1013.3
20260904210537 89 0 0.0 3.0 0.00 0.03 0.03 69 1013.4
20260904210058 89 179 1.0 3.0 0.00 0.03 0.03 68 1013.5
20260904205537 89 179 1.0 4.0 0.00 0.04 0.03 69 1013.5
20260904205036 89 179 0.0 4.0 0.00 0.04 0.03 69 1013.6
20260904204606 89 179 1.0 5.0 0.00 0.04 0.03 68 1013.6
20260904204037 89 133 1.0 5.0 0.00 0.04 0.03 69 1013.6
20260904203536 89 221 1.0 7.0 0.00 0.04 0.03 68 1013.6
20260904203056 89 175 3.0 7.0 0.00 0.04 0.03 69 1013.7
20260904202535 89 148 2.0 7.0 0.00 0.04 0.03 70 1013.8
20260904202036 87 157 3.0 7.0 0.00 0.04 0.03 72 1013.9
20260904201627 86 143 1.0 5.0 0.00 0.04 0.03 73 1013.9
20260904201037 86 133 1.0 3.0 0.00 0.04 0.03 73 1014.0
20260904200536 86 128 1.0 7.0 0.00 0.04 0.03 74 1014.1
20260904200105 86 128 2.0 7.0 0.00 0.04 0.03 75 1014.0
20260904195537 86 128 4.0 7.0 0.00 0.05 0.03 75 1014.1
20260904195036 86 176 1.0 4.0 0.00 0.05 0.03 75 1014.2
20260904194600 86 176 1.0 7.0 0.00 0.05 0.03 75 1014.3
20260904194040 85 127 3.0 8.0 0.00 0.05 0.03 75 1014.5
20260904193537 86 159 3.0 8.0 0.00 0.05 0.03 76 1014.6
20260904193104 86 129 4.0 6.0 0.00 0.05 0.03 75 1014.6
20260904192537 86 164 2.0 7.0 0.00 0.05 0.03 75 1014.5
20260904192036 86 0 2.0 7.0 0.00 0.05 0.03 74 1014.5
20260904191602 86 163 2.0 7.0 0.00 0.05 0.03 74 1014.7
20260904191041 86 152 3.0 7.0 0.00 0.05 0.03 74 1014.7
20260904190539 87 0 1.0 5.0 0.00 0.05 0.03 74 1014.7
20260904185537 87 162 2.0 8.0 0.00 0.10 0.03 72 1014.9
20260904185036 88 180 3.0 8.0 0.00 0.10 0.03 71 1014.9
20260904184601 88 182 2.0 8.0 0.00 0.10 0.03 69 1015.0
20260904184039 88 167 4.0 9.0 0.00 0.10 0.03 69 1014.9
20260904183537 88 156 5.0 9.0 0.00 0.10 0.03 70 1015.1
20260904183117 87 141 4.0 9.0 0.00 0.10 0.03 74 1015.2
20260904182539 87 190 5.0 9.0 0.00 0.10 0.03 74 1015.4
20260904182037 85 175 4.0 9.0 0.00 0.10 0.03 76 1015.3
20260904181603 84 156 2.0 9.0 0.00 0.10 0.03 77 1015.3
20260904181037 84 167 4.0 9.0 0.00 0.10 0.03 78 1015.3
20260904180537 84 149 4.0 11.0 0.00 0.10 0.03 78 1015.4
20260904180105 84 172 6.0 11.0 0.00 0.10 0.03 77 1015.8
20260904175538 85 159 6.0 10.0 0.00 0.13 0.03 78 1015.7
20260904175036 86 183 3.0 11.0 0.02 0.13 0.03 76 1015.6
20260904174602 87 144 5.0 12.0 0.02 0.13 0.03 76 1015.5
20260904174040 87 172 6.0 12.0 0.02 0.13 0.03 76 1015.5
20260904173538 87 144 6.0 10.0 0.02 0.13 0.03 78 1015.4
20260904173107 87 149 3.0 7.0 0.02 0.13 0.03 80 1015.5
20260904172536 86 199 2.0 5.0 0.02 0.13 0.03 82 1015.5
20260904172037 85 137 2.0 5.0 0.02 0.13 0.03 80 1015.8
20260904171615 84 34 1.0 3.0 0.02 0.13 0.03 78 1015.9
20260904171037 84 34 1.0 3.0 0.02 0.13 0.03 81 1016.1
20260904170536 83 34 1.0 6.0 0.02 0.13 0.03 86 1016.1
20260904165537 84 34 3.0 13.0 0.02 0.18 0.03 79 1015.9
20260904165037 86 134 4.0 13.0 0.00 0.16 0.01 79 1015.9
20260904164614 89 174 4.0 9.0 0.00 0.16 0.01 77 1015.8
20260904164037 89 167 1.0 8.0 0.00 0.16 0.01 76 1015.7
20260904163536 89 157 3.0 8.0 0.00 0.16 0.01 77 1015.8
20260904163056 89 142 2.0 7.0 0.00 0.16 0.01 78 1015.7
20260904162536 88 339 1.0 9.0 0.00 0.16 0.01 78 1015.7
20260904162036 88 269 2.0 9.0 0.00 0.16 0.01 79 1015.8
20260904161604 87 81 4.0 9.0 0.00 0.16 0.01 80 1015.7
20260904161036 87 138 5.0 9.0 0.00 0.16 0.01 82 1015.7
20260904160537 86 0 2.0 7.0 0.00 0.16 0.01 83 1015.7
20260904155538 85 111 2.0 8.0 0.00 0.22 0.01 85 1015.8
20260904155037 85 106 4.0 8.0 0.00 0.22 0.01 86 1015.9
20260904154601 84 67 2.0 4.0 0.00 0.22 0.01 89 1015.8
20260904154037 83 67 0.0 4.0 0.00 0.22 0.01 89 1015.9
20260904153537 83 67 1.0 7.0 0.00 0.22 0.01 89 1016.0
20260904153108 83 67 2.0 7.0 0.00 0.22 0.01 89 1015.9
20260904152537 83 110 2.0 6.0 0.00 0.22 0.01 90 1015.9
20260904152036 83 107 1.0 4.0 0.00 0.22 0.01 90 1015.8
20260904151603 83 0 1.0 8.0 0.00 0.22 0.01 91 1015.8
20260904151036 83 80 3.0 8.0 0.00 0.22 0.01 90 1015.7
20260904150536 83 108 2.0 6.0 0.00 0.22 0.01 91 1015.7
20260904150058 82 43 2.0 6.0 0.00 0.22 0.01 91 1015.7
20260904145536 82 78 1.0 6.0 0.00 0.34 0.01 91 1015.8
20260904145036 82 106 2.0 6.0 0.00 0.34 0.01 91 1015.7
20260904144602 82 0 2.0 7.0 0.00 0.34 0.01 92 1015.7
20260904144037 82 53 2.0 7.0 0.00 0.34 0.01 92 1015.7
20260904143537 82 114 3.0 7.0 0.00 0.34 0.01 92 1015.7
20260904143102 82 161 3.0 7.0 0.00 0.34 0.01 92 1015.7
20260904142537 82 145 2.0 7.0 0.00 0.34 0.01 93 1015.5
20260904142036 81 138 4.0 7.0 0.00 0.34 0.01 93 1015.5
20260904141600 81 178 2.0 7.0 0.00 0.34 0.01 94 1015.5
20260904141036 80 168 3.0 7.0 0.00 0.34 0.01 95 1015.5
20260904140536 80 150 2.0 7.0 0.00 0.34 0.01 95 1015.5
20260904140103 80 178 1.0 6.0 0.00 0.34 0.01 97 1015.5
20260904135537 80 103 2.0 6.0 0.00 0.34 0.01 97 1015.5
20260904135035 79 142 3.0 6.0 0.00 0.34 0.01 97 1015.5
20260904134600 79 161 1.0 6.0 0.00 0.34 0.01 97 1015.4
20260904134036 79 161 2.0 5.0 0.00 0.34 0.01 97 1015.4
20260904133536 78 0 0.0 5.0 0.00 0.34 0.01 97 1015.4
20260904133103 78 161 2.0 5.0 0.00 0.34 0.01 97 1015.3
20260904132538 78 161 2.0 5.0 0.00 0.34 0.01 97 1015.3
20260904132036 77 161 2.0 5.0 0.00 0.34 0.01 97 1015.2
20260904131609 77 0 2.0 5.0 0.00 0.34 0.01 96 1015.2
20260904131038 77 0 0.0 0.0 0.00 0.34 0.01 97 1015.1
20260904130537 77 0 0.0 0.0 0.00 0.34 0.01 97 1015.1
20260904125539 77 0 0.0 2.0 0.00 0.54 0.01 96 1015.1
20260904125037 77 0 0.0 2.0 0.00 0.54 0.01 96 1015.0
20260904124600 77 0 0.0 3.0 0.00 0.54 0.01 96 1015.0
20260904124037 77 0 0.0 3.0 0.01 0.54 0.01 96 1014.8
20260904123536 77 118 1.0 3.0 0.01 0.54 0.01 96 1014.8
20260904123058 77 0 1.0 4.0 0.01 0.54 0.01 96 1014.8
20260904122537 76 118 1.0 4.0 0.01 0.54 0.01 96 1014.8
20260904122037 76 118 1.0 4.0 0.01 0.54 0.01 96 1014.8
20260904121555 76 118 1.0 4.0 0.01 0.54 0.01 96 1014.7
20260904121036 76 0 1.0 4.0 0.01 0.54 0.01 96 1014.6
20260904120536 76 118 1.0 4.0 0.01 0.54 0.01 96 1014.6
20260904120053 76 0 2.0 6.0 0.01 0.54 0.01 96 1014.6
20260904115536 76 106 0.0 6.0 0.01 0.63 0.01 96 1014.5
20260904115039 76 105 1.0 5.0 0.01 0.63 0.01 95 1014.4
20260904114605 76 113 1.0 3.0 0.01 0.63 0.01 95 1014.5
20260904114036 76 113 0.0 3.0 0.00 0.62 0.00 95 1014.4
20260904113538 76 0 0.0 3.0 0.00 0.62 0.00 95 1014.3
20260904113059 76 113 0.0 3.0 0.00 0.62 0.00 95 1014.3
20260904112537 76 0 0.0 3.0 0.00 0.62 0.00 95 1014.4
20260904112036 76 0 0.0 3.0 0.00 0.62 0.00 95 1014.3
20260904111602 76 113 0.0 2.0 0.00 0.62 0.00 95 1014.4
20260904111038 76 0 0.0 2.0 0.00 0.62 0.00 95 1014.3
20260904110538 76 0 0.0 2.0 0.00 0.62 0.00 95 1014.3
20260904110109 76 0 0.0 0.0 0.00 0.62 0.00 95 1014.3
20260904105537 76 0 0.0 0.0 0.00 0.62 0.00 95 1014.3
20260904105038 77 0 0.0 0.0 0.00 0.62 0.00 95 1014.3
20260904104603 77 0 0.0 0.0 0.00 0.62 0.00 95 1014.2
20260904104038 77 0 0.0 0.0 0.00 0.62 0.00 95 1014.2
20260904103536 77 0 0.0 0.0 0.00 0.62 0.00 95 1014.1
20260904103101 77 0 0.0 0.0 0.00 0.62 0.00 95 1014.1
20260904102537 77 0 0.0 0.0 0.00 0.62 0.00 95 1014.2
20260904102036 77 0 0.0 0.0 0.00 0.62 0.00 95 1014.1
20260904101611 77 0 0.0 0.0 0.00 0.62 0.00 95 1014.1
20260904101036 77 0 0.0 0.0 0.00 0.62 0.00 95 1014.2
20260904100536 77 0 0.0 2.0 0.00 0.62 0.00 95 1014.2
20260904100109 77 0 0.0 2.0 0.00 0.62 0.00 95 1014.1
20260904095538 77 113 0.0 3.0 0.00 0.62 0.00 95 1014.0
20260904095037 77 113 0.0 3.0 0.00 0.62 0.00 95 1013.9
20260904094609 77 113 0.0 0.0 0.00 0.62 0.00 95 1013.8
20260904094040 77 0 0.0 0.0 0.00 0.62 0.00 95 1013.6
20260904093536 77 0 0.0 0.0 0.00 0.62 0.00 95 1013.6
20260904093108 77 0 0.0 0.0 0.00 0.62 0.00 95 1013.6
20260904092536 77 0 0.0 0.0 0.00 0.62 0.00 95 1013.6
20260904092037 77 0 0.0 0.0 0.00 0.62 0.00 95 1013.7
20260904091609 77 0 0.0 2.0 0.00 0.62 0.00 95 1013.6
20260904091037 77 0 0.0 2.0 0.00 0.62 0.00 95 1013.6
20260904090536 77 113 0.0 0.0 0.00 0.62 0.00 95 1013.5
20260904090101 77 0 0.0 0.0 0.00 0.62 0.00 95 1013.5
20260904085539 77 0 0.0 0.0 0.00 0.62 0.00 95 1013.6
20260904085036 77 0 0.0 0.0 0.00 0.62 0.00 94 1013.5
20260904084558 77 0 0.0 0.0 0.00 0.62 0.00 94 1013.6
20260904084037 77 0 0.0 0.0 0.00 0.62 0.00 94 1013.6
20260904083538 77 0 0.0 0.0 0.00 0.62 0.00 94 1013.6
20260904083057 77 0 0.0 0.0 0.00 0.62 0.00 94 1013.6
20260904082547 77 0 0.0 0.0 0.00 0.62 0.00 94 1013.6
20260904082037 77 0 0.0 0.0 0.00 0.62 0.00 94 1013.6
20260904081610 77 0 0.0 0.0 0.00 0.62 0.00 94 1013.6
20260904081037 77 0 0.0 0.0 0.00 0.62 0.00 94 1013.7
20260904080536 77 0 0.0 0.0 0.00 0.62 0.00 94 1013.7
20260904080059 77 0 0.0 0.0 0.00 0.62 0.00 94 1013.8
20260904075537 77 0 0.0 0.0 0.00 0.62 0.00 94 1013.8
20260904075038 77 0 0.0 0.0 0.00 0.62 0.00 94 1013.9
20260904074559 77 0 0.0 0.0 0.00 0.62 0.00 94 1013.9
20260904074038 77 0 0.0 0.0 0.00 0.62 0.00 94 1013.8
20260904073537 77 0 0.0 0.0 0.00 0.62 0.00 94 1013.9
20260904073109 77 0 0.0 0.0 0.00 0.62 0.00 94 1014.0
20260904072539 77 0 0.0 0.0 0.00 0.62 0.00 94 1014.0
20260904072036 77 0 0.0 0.0 0.00 0.62 0.00 94 1014.0
20260904071602 77 0 0.0 0.0 0.00 0.62 0.00 94 1014.0
20260904071036 77 0 0.0 0.0 0.00 0.62 0.00 93 1014.1
20260904070536 77 0 0.0 0.0 0.00 0.62 0.00 93 1014.0
20260904070106 77 0 0.0 0.0 0.00 0.62 0.00 93 1014.1
20260904065537 77 0 0.0 0.0 0.00 0.62 0.00 93 1014.1
20260904065037 77 0 0.0 0.0 0.00 0.62 0.00 93 1014.1
20260904064604 77 0 0.0 0.0 0.00 0.62 0.00 93 1014.1
20260904064037 77 0 0.0 0.0 0.00 0.62 0.00 93 1014.1
20260904063541 77 0 0.0 0.0 0.00 0.62 0.00 93 1014.2
20260904063109 77 0 0.0 0.0 0.00 0.62 0.00 93 1014.2
20260904062538 77 0 0.0 0.0 0.00 0.62 0.00 93 1014.2
20260904062036 77 0 0.0 0.0 0.00 0.62 0.00 93 1014.1
20260904061600 77 0 0.0 0.0 0.00 0.62 0.00 93 1014.1
20260904061038 77 0 0.0 0.0 0.00 0.62 0.00 93 1014.2
20260904060536 77 0 0.0 0.0 0.00 0.62 0.00 93 1014.3
20260904060127 77 0 0.0 0.0 0.00 0.62 0.00 93 1014.3
20260904055536 77 0 0.0 0.0 0.00 0.62 0.00 93 1014.2
20260904055036 77 0 0.0 0.0 0.00 0.62 0.00 93 1014.3
20260904054633 77 0 0.0 0.0 0.00 0.62 0.00 93 1014.2
20260904054038 77 0 0.0 0.0 0.00 0.62 0.00 93 1014.2
20260904053537 77 0 0.0 0.0 0.00 0.62 0.00 93 1014.0
20260904053055 77 0 0.0 0.0 0.00 0.62 0.00 93 1013.8
20260904052537 77 0 0.0 0.0 0.00 0.62 0.00 93 1013.8
20260904052037 77 0 0.0 0.0 0.00 0.62 0.00 93 1013.9
20260904051604 77 0 0.0 0.0 0.00 0.62 0.00 93 1013.9
20260904051039 77 0 0.0 0.0 0.00 0.62 0.00 92 1014.0
20260904050536 77 0 0.0 0.0 0.00 0.62 0.00 92 1014.1
20260904045536 77 0 0.0 0.0 0.00 0.62 0.62 92 1014.1
20260904045036 77 0 0.0 0.0 0.00 0.62 0.62 92 1014.0
20260904044600 78 0 0.0 0.0 0.00 0.62 0.62 92 1014.0
20260904044037 77 0 0.0 0.0 0.00 0.62 0.62 92 1014.0
20260904043537 77 0 0.0 0.0 0.00 0.62 0.62 92 1014.0
20260904043105 77 0 0.0 0.0 0.00 0.62 0.62 92 1014.0
20260904042538 77 0 0.0 0.0 0.00 0.62 0.62 92 1013.9
20260904042037 77 0 0.0 0.0 0.00 0.62 0.62 92 1013.9
20260904041607 77 0 0.0 0.0 0.00 0.62 0.62 92 1013.9
20260904041036 78 0 0.0 0.0 0.00 0.62 0.62 92 1013.9
20260904040536 78 0 0.0 0.0 0.00 0.62 0.62 92 1013.8
20260904040106 77 0 0.0 0.0 0.00 0.62 0.62 91 1013.9
20260904035536 77 0 0.0 0.0 0.00 0.62 0.62 91 1013.9
20260904035038 78 0 0.0 0.0 0.00 0.62 0.62 91 1013.9